| time (UTC) | temp C | wind direction | speed KPH | gust KPH | rain 1hr cm | rain 24hr cm | rain mn cm | humidity % | barometer mb |
| 20260905183118 | -17 | 45 | 0.0 | 0.0 | 0.00 | 0.46 | 0.46 | 1020.9 | |
| 20260905182256 | -17 | 45 | 0.0 | 0.0 | 0.00 | 0.46 | 0.46 | 1020.8 | |
| 20260905181447 | -17 | 45 | 0.0 | 0.0 | 0.00 | 0.46 | 0.46 | 1020.7 | |
| 20260905180634 | -17 | 45 | 0.0 | 0.0 | 0.00 | 0.46 | 0.46 | 1020.5 | |
| 20260905175826 | -17 | 45 | 0.0 | 0.0 | 0.00 | 0.46 | 0.46 | 1020.3 | |
| 20260905175020 | -17 | 45 | 0.0 | 0.0 | 0.00 | 0.46 | 0.46 | 1020.1 | |
| 20260905174216 | -17 | 45 | 0.0 | 0.0 | 0.00 | 0.46 | 0.46 | 1020.0 | |
| 20260905173412 | -17 | 45 | 0.0 | 0.0 | 0.00 | 0.46 | 0.46 | 1019.7 | |
| 20260905172611 | -17 | 135 | 0.0 | 0.0 | 0.00 | 0.46 | 0.46 | 1019.5 | |
| 20260905171806 | -17 | 45 | 0.0 | 0.0 | 0.00 | 0.46 | 0.46 | 1019.3 | |
| 20260905170957 | -17 | 180 | 0.0 | 0.0 | 0.00 | 0.46 | 0.46 | 1019.2 | |
| 20260905170153 | -17 | 180 | 0.0 | 0.0 | 0.00 | 0.46 | 0.46 | 1019.1 | |
| 20260905165347 | -17 | 45 | 0.0 | 0.0 | 0.00 | 0.46 | 0.46 | 1018.9 | |
| 20260905164544 | -17 | 45 | 0.0 | 0.0 | 0.00 | 0.46 | 0.46 | 1018.7 | |
| 20260905163734 | -17 | 45 | 0.0 | 0.0 | 0.00 | 0.46 | 0.46 | 1018.6 | |
| 20260905162921 | -17 | 45 | 0.0 | 0.0 | 0.00 | 0.46 | 0.46 | 1018.5 | |
| 20260905162114 | -17 | 45 | 0.0 | 0.0 | 0.00 | 0.46 | 0.46 | 1018.2 | |
| 20260905161309 | -17 | 45 | 0.0 | 0.0 | 0.00 | 0.46 | 0.46 | 1018.1 | |
| 20260905160504 | -17 | 45 | 0.0 | 0.0 | 0.00 | 0.46 | 0.46 | 1017.9 | |
| 20260905155658 | -17 | 90 | 0.0 | 0.0 | 0.00 | 0.46 | 0.46 | 1017.5 | |
| 20260905154855 | -17 | 180 | 0.0 | 0.0 | 0.00 | 0.46 | 0.46 | 1017.6 | |
| 20260905154055 | -17 | 45 | 0.0 | 0.0 | 0.00 | 0.46 | 0.46 | 1017.5 | |
| 20260905153250 | -17 | 203 | 0.0 | 0.0 | 0.00 | 0.46 | 0.46 | 1017.7 | |
| 20260905152445 | -17 | 45 | 0.0 | 0.0 | 0.00 | 0.46 | 0.46 | 1017.7 | |
| 20260905151643 | -17 | 45 | 0.0 | 0.0 | 0.00 | 0.46 | 0.46 | 1017.7 | |
| 20260905150832 | -17 | 45 | 0.0 | 0.0 | 0.00 | 0.46 | 0.46 | 1017.5 | |
| 20260905150031 | -17 | 248 | 0.0 | 0.0 | 0.00 | 0.46 | 0.46 | 1017.3 | |
| 20260905145231 | -17 | 248 | 0.0 | 0.0 | 0.00 | 0.46 | 0.46 | 1017.5 | |
| 20260905144425 | -17 | 90 | 0.0 | 0.0 | 0.00 | 0.46 | 0.46 | 1017.6 | |
| 20260905143621 | -17 | 90 | 0.0 | 0.0 | 0.00 | 0.46 | 0.46 | 1017.5 | |
| 20260905142814 | -17 | 90 | 0.0 | 0.0 | 0.00 | 0.46 | 0.46 | 1017.6 | |
| 20260905142012 | -17 | 45 | 0.0 | 0.0 | 0.00 | 0.46 | 0.46 | 1017.8 | |
| 20260905141201 | -17 | 180 | 0.0 | 0.0 | 0.00 | 0.46 | 0.46 | 1017.7 | |
| 20260905140355 | -17 | 180 | 0.0 | 0.0 | 0.00 | 0.46 | 0.46 | 1017.5 | |
| 20260905135553 | -17 | 180 | 0.0 | 0.0 | 0.00 | 0.46 | 0.46 | 1017.3 | |
| 20260905134749 | -17 | 203 | 0.0 | 0.0 | 0.00 | 0.46 | 0.46 | 1017.5 | |
| 20260905133944 | -17 | 248 | 0.0 | 0.0 | 0.00 | 0.46 | 0.46 | 1017.6 | |
| 20260905133142 | -17 | 248 | 0.0 | 0.0 | 0.00 | 0.46 | 0.46 | 1016.6 | |
| 20260905132338 | -17 | 248 | 0.0 | 0.0 | 0.00 | 0.46 | 0.46 | 1017.0 | |
| 20260905131536 | -17 | 203 | 0.0 | 0.0 | 0.00 | 0.46 | 0.46 | 1017.4 | |
| 20260905130734 | -17 | 203 | 0.0 | 0.0 | 0.00 | 0.46 | 0.46 | 1018.0 | |
| 20260905125932 | -17 | 203 | 0.0 | 0.0 | 0.00 | 0.46 | 0.46 | 1018.0 | |
| 20260905125130 | -17 | 248 | 0.0 | 0.0 | 0.00 | 0.46 | 0.46 | 1018.0 | |
| 20260905124326 | -17 | 45 | 0.0 | 0.0 | 0.00 | 0.46 | 0.46 | 1017.6 | |
| 20260905123524 | -17 | 45 | 0.0 | 0.0 | 0.00 | 0.46 | 0.46 | 1017.7 | |
| 20260905122722 | -17 | 135 | 0.0 | 0.0 | 0.00 | 0.46 | 0.46 | 1018.1 | |
| 20260905121921 | -17 | 135 | 0.0 | 0.0 | 0.00 | 0.46 | 0.46 | 1017.6 | |
| 20260905121119 | -17 | 248 | 0.0 | 0.0 | 0.00 | 0.46 | 0.46 | 1018.4 | |
| 20260905120312 | -17 | 203 | 0.0 | 0.0 | 0.00 | 0.46 | 0.46 | 1017.8 | |
| 20260905115504 | -17 | 203 | 0.0 | 0.0 | 0.00 | 0.46 | 0.46 | 1017.2 | |
| 20260905114658 | -17 | 248 | 0.0 | 0.0 | 0.00 | 0.46 | 0.46 | 1018.0 | |
| 20260905113853 | -17 | 45 | 0.0 | 0.0 | 0.00 | 0.46 | 0.46 | 1017.8 | |
| 20260905113046 | -17 | 248 | 0.0 | 0.0 | 0.00 | 0.46 | 0.46 | 1018.4 | |
| 20260905112237 | -17 | 180 | 0.0 | 0.0 | 0.00 | 0.46 | 0.46 | 1018.0 | |
| 20260905111430 | -17 | 248 | 0.0 | 0.0 | 0.00 | 0.46 | 0.46 | 1017.8 | |
| 20260905110625 | -17 | 248 | 0.0 | 0.0 | 0.00 | 0.46 | 0.46 | 1018.0 | |
| 20260905105820 | -17 | 45 | 0.0 | 0.0 | 0.00 | 0.46 | 0.46 | 1018.3 | |
| 20260905105015 | -17 | 45 | 0.0 | 0.0 | 0.00 | 0.46 | 0.46 | 1018.4 | |
| 20260905104211 | -17 | 45 | 0.0 | 0.0 | 0.00 | 0.46 | 0.46 | 1018.4 | |
| 20260905103412 | -17 | 180 | 0.0 | 0.0 | 0.00 | 0.46 | 0.46 | 1018.1 | |
| 20260905102609 | -17 | 338 | 0.0 | 0.0 | 0.00 | 0.46 | 0.46 | 1018.1 | |
| 20260905101809 | -17 | 248 | 0.0 | 0.0 | 0.00 | 0.46 | 0.46 | 1018.4 | |
| 20260905101008 | -17 | 248 | 0.0 | 0.0 | 0.00 | 0.46 | 0.46 | 1018.2 | |
| 20260905100202 | -17 | 248 | 0.0 | 0.0 | 0.00 | 0.46 | 0.46 | 1018.4 | |
| 20260905095401 | -17 | 180 | 0.0 | 0.0 | 0.00 | 0.41 | 0.41 | 1018.6 | |
| 20260905094559 | -17 | 248 | 0.0 | 0.0 | 0.00 | 0.41 | 0.41 | 1018.7 | |
| 20260905093758 | -17 | 248 | 0.0 | 0.0 | 0.00 | 0.41 | 0.41 | 1018.7 | |
| 20260905092957 | -17 | 248 | 0.0 | 0.0 | 0.00 | 0.41 | 0.41 | 1018.7 | |
| 20260905092154 | -17 | 248 | 0.0 | 0.0 | 0.00 | 0.41 | 0.41 | 1018.8 | |
| 20260905091349 | -17 | 248 | 0.0 | 0.0 | 0.00 | 0.41 | 0.41 | 1018.7 | |
| 20260905090548 | -17 | 248 | 0.0 | 0.0 | 0.00 | 0.41 | 0.41 | 1018.7 | |
| 20260905085746 | -17 | 248 | 0.0 | 0.0 | 0.00 | 0.41 | 0.41 | 1018.7 | |
| 20260905084944 | -17 | 248 | 0.0 | 0.0 | 0.00 | 0.41 | 0.41 | 1018.8 | |
| 20260905084143 | -17 | 248 | 0.0 | 0.0 | 0.00 | 0.41 | 0.41 | 1018.6 | |
| 20260905083341 | -17 | 248 | 0.0 | 0.0 | 0.00 | 0.41 | 0.41 | 1018.7 | |
| 20260905082539 | -17 | 203 | 0.0 | 0.0 | 0.00 | 0.41 | 0.41 | 1018.5 | |
| 20260905081738 | -17 | 180 | 0.0 | 0.0 | 0.00 | 0.41 | 0.41 | 1018.8 | |
| 20260905080936 | -17 | 180 | 0.0 | 0.0 | 0.00 | 0.41 | 0.41 | 1018.8 | |
| 20260905080134 | -17 | 248 | 0.0 | 0.0 | 0.00 | 0.41 | 0.41 | 1018.8 | |
| 20260905075333 | -17 | 248 | 0.0 | 0.0 | 0.00 | 0.41 | 0.41 | 1018.7 | |
| 20260905074529 | -17 | 135 | 0.0 | 0.0 | 0.00 | 0.41 | 0.41 | 1018.5 | |
| 20260905073725 | -17 | 135 | 0.0 | 0.0 | 0.00 | 0.41 | 0.41 | 1018.5 | |
| 20260905072922 | -17 | 180 | 0.0 | 0.0 | 0.00 | 0.41 | 0.41 | 1018.6 | |
| 20260905072120 | -17 | 248 | 0.0 | 0.0 | 0.00 | 0.41 | 0.41 | 1018.6 | |
| 20260905071320 | -17 | 248 | 0.0 | 0.0 | 0.00 | 0.41 | 0.41 | 1018.5 | |
| 20260905070520 | -17 | 248 | 0.0 | 0.0 | 0.00 | 0.41 | 0.41 | 1018.6 | |
| 20260905065718 | -17 | 248 | 0.0 | 0.0 | 0.00 | 0.41 | 0.41 | 1018.8 | |
| 20260905064917 | -17 | 248 | 0.0 | 0.0 | 0.00 | 0.41 | 0.41 | 1018.9 | |
| 20260905064116 | -17 | 248 | 0.0 | 0.0 | 0.00 | 0.41 | 0.41 | 1018.9 | |
| 20260905063315 | -17 | 248 | 0.0 | 0.0 | 0.00 | 0.41 | 0.41 | 1018.9 | |
| 20260905062513 | -17 | 248 | 0.0 | 0.0 | 0.00 | 0.41 | 0.41 | 1019.0 | |
| 20260905061713 | -17 | 45 | 0.0 | 0.0 | 0.00 | 0.41 | 0.41 | 1018.9 | |
| 20260905060910 | -17 | 180 | 0.0 | 0.0 | 0.00 | 0.41 | 0.41 | 1018.6 | |
| 20260905060105 | -17 | 203 | 0.0 | 0.0 | 0.00 | 0.41 | 0.41 | 1018.6 | |
| 20260905055256 | -17 | 248 | 0.0 | 0.0 | 0.03 | 0.41 | 0.41 | 1018.7 | |
| 20260905054454 | -17 | 180 | 0.0 | 0.0 | 0.03 | 0.41 | 0.41 | 1018.7 | |
| 20260905053653 | -17 | 180 | 0.0 | 0.0 | 0.03 | 0.41 | 0.41 | 1017.9 | |
| 20260905052852 | -17 | 203 | 0.0 | 0.0 | 0.03 | 0.41 | 0.41 | 1017.4 | |
| 20260905052051 | -17 | 203 | 0.0 | 0.0 | 0.00 | 0.38 | 0.38 | 1017.8 | |
| 20260905051249 | -17 | 248 | 0.0 | 0.0 | 0.00 | 0.38 | 0.38 | 1018.1 | |
| 20260905050448 | -17 | 248 | 0.0 | 0.0 | 0.00 | 0.38 | 0.38 | 1018.3 | |
| 20260905045645 | -17 | 248 | 0.0 | 0.0 | 0.23 | 0.33 | 0.33 | 1018.2 | |
| 20260905044840 | -17 | 248 | 0.0 | 0.0 | 0.15 | 0.25 | 0.25 | 1018.2 | |
| 20260905044041 | -17 | 248 | 0.0 | 0.0 | 0.10 | 0.23 | 0.23 | 1018.0 | |
| 20260905043233 | -17 | 90 | 0.0 | 0.0 | 0.03 | 0.15 | 0.15 | 1018.1 | |
| 20260905042431 | -17 | 90 | 0.0 | 0.0 | 0.03 | 0.15 | 0.15 | 1017.8 | |
| 20260905041629 | -17 | 180 | 0.0 | 0.0 | 0.00 | 0.10 | 0.10 | 1017.7 | |
| 20260905040829 | -17 | 180 | 0.0 | 0.0 | 0.00 | 0.10 | 0.10 | 1017.4 | |
| 20260905040029 | -17 | 45 | 0.0 | 0.0 | 0.00 | 0.10 | 0.10 | 1016.5 | |
| 20260905035229 | -17 | 45 | 0.0 | 0.0 | 0.03 | 0.10 | 0.10 | 1016.6 | |
| 20260905034427 | -17 | 45 | 0.0 | 0.0 | 0.03 | 0.10 | 0.10 | 1016.6 | |
| 20260905033625 | -17 | 248 | 0.0 | 0.0 | 0.00 | 0.08 | 0.08 | 1017.1 | |
| 20260905032826 | -17 | 248 | 0.0 | 0.0 | 0.00 | 0.08 | 0.08 | 1016.3 | |
| 20260905032026 | -17 | 45 | 0.0 | 0.0 | 0.00 | 0.08 | 0.08 | 1016.0 | |
| 20260905031227 | -17 | 45 | 0.0 | 0.0 | 0.00 | 0.08 | 0.08 | 1015.7 | |
| 20260905030428 | -17 | 248 | 0.0 | 0.0 | 0.00 | 0.08 | 0.08 | 1016.8 | |
| 20260905025626 | -17 | 45 | 0.0 | 0.0 | 0.00 | 0.08 | 0.08 | 1016.3 | |
| 20260905024824 | -17 | 45 | 0.0 | 0.0 | 0.00 | 0.08 | 0.08 | 1015.9 | |
| 20260905024025 | -17 | 180 | 0.0 | 0.0 | 0.00 | 0.08 | 0.08 | 1015.9 | |
| 20260905023222 | -17 | 135 | 0.0 | 0.0 | 0.00 | 0.08 | 0.08 | 1016.1 | |
| 20260905022417 | -17 | 45 | 0.0 | 0.0 | 0.00 | 0.08 | 0.08 | 1015.6 | |
| 20260905021615 | -17 | 90 | 0.0 | 0.0 | 0.00 | 0.08 | 0.08 | 1015.8 | |
| 20260905020814 | -17 | 90 | 0.0 | 0.0 | 0.00 | 0.08 | 0.08 | 1015.7 | |
| 20260905020009 | -17 | 45 | 0.0 | 0.0 | 0.00 | 0.08 | 0.08 | 1015.6 | |
| 20260905015204 | -17 | 45 | 0.0 | 0.0 | 0.00 | 0.08 | 0.08 | 1015.1 | |
| 20260905014402 | -17 | 45 | 0.0 | 0.0 | 0.00 | 0.08 | 0.08 | 1015.1 | |
| 20260905013600 | -17 | 90 | 0.0 | 0.0 | 0.00 | 0.08 | 0.08 | 1015.3 | |
| 20260905012757 | -17 | 90 | 0.0 | 0.0 | 0.00 | 0.08 | 0.08 | 1015.2 | |
| 20260905011954 | -17 | 45 | 0.0 | 0.0 | 0.00 | 0.08 | 0.08 | 1015.0 | |
| 20260905011148 | -17 | 45 | 0.0 | 0.0 | 0.00 | 0.08 | 0.08 | 1015.1 | |
| 20260905010343 | -17 | 135 | 0.0 | 0.0 | 0.00 | 0.08 | 0.08 | 1015.2 | |
| 20260905005545 | -17 | 45 | 0.0 | 0.0 | 0.08 | 0.08 | 0.08 | 1015.2 | |
| 20260905004743 | -17 | 45 | 0.0 | 0.0 | 0.03 | 0.03 | 0.03 | 1015.2 | |
| 20260905003943 | -17 | 90 | 0.0 | 0.0 | 0.03 | 0.03 | 0.03 | 1015.1 | |
| 20260905003142 | -17 | 45 | 0.0 | 0.0 | 0.03 | 0.03 | 0.03 | 1014.7 | |
| 20260905002340 | -17 | 45 | 0.0 | 0.0 | 0.00 | 0.00 | 0.00 | 1014.6 | |
| 20260905001538 | -17 | 45 | 0.0 | 0.0 | 0.00 | 0.00 | 0.00 | 1014.3 | |
| 20260905000734 | -17 | 45 | 0.0 | 0.0 | 0.00 | 0.00 | 0.00 | 1014.2 | |
| 20260904235933 | -17 | 45 | 0.0 | 0.0 | 0.00 | 0.00 | 0.00 | 1014.4 | |
| 20260904235132 | -17 | 45 | 0.0 | 0.0 | 0.00 | 0.00 | 0.00 | 1013.6 | |
| 20260904234334 | -17 | 90 | 0.0 | 0.0 | 0.00 | 0.00 | 0.00 | 1013.3 | |
| 20260904233532 | -17 | 180 | 0.0 | 0.0 | 0.00 | 0.00 | 0.00 | 1012.7 | |
| 20260904232729 | -17 | 45 | 0.0 | 0.0 | 0.00 | 0.00 | 0.00 | 1012.3 | |
| 20260904231927 | -17 | 45 | 0.0 | 0.0 | 0.00 | 0.00 | 0.00 | 1011.9 | |
| 20260904231123 | -17 | 315 | 0.0 | 0.0 | 0.00 | 0.00 | 0.00 | 1011.3 | |
| 20260904230320 | -17 | 203 | 0.0 | 0.0 | 0.00 | 0.00 | 0.00 | 1010.9 | |
| 20260904225520 | -17 | 248 | 0.0 | 0.0 | 0.00 | 0.00 | 0.00 | 1010.6 | |
| 20260904224722 | -17 | 248 | 0.0 | 0.0 | 0.00 | 0.00 | 0.00 | 1011.4 | |
| 20260904223923 | -17 | 248 | 0.0 | 0.0 | 0.00 | 0.00 | 0.00 | 1011.6 | |
| 20260904223124 | -17 | 135 | 0.0 | 0.0 | 0.00 | 0.00 | 0.00 | 1011.7 | |
| 20260904222325 | -17 | 135 | 0.0 | 0.0 | 0.00 | 0.00 | 0.00 | 1011.6 | |
| 20260904221527 | -17 | 135 | 0.0 | 0.0 | 0.00 | 0.00 | 0.00 | 1011.7 | |
| 20260904220725 | -17 | 135 | 0.0 | 0.0 | 0.00 | 0.00 | 0.00 | 1011.7 | |
| 20260904215927 | -17 | 180 | 0.0 | 0.0 | 0.00 | 0.00 | 0.00 | 1011.6 | |
| 20260904215128 | -17 | 135 | 0.0 | 0.0 | 0.00 | 0.00 | 0.00 | 1011.7 | |
| 20260904214326 | -17 | 135 | 0.0 | 0.0 | 0.00 | 0.00 | 0.00 | 1011.7 | |
| 20260904213527 | -17 | 135 | 0.0 | 0.0 | 0.00 | 0.00 | 0.00 | 1011.6 | |
| 20260904212724 | -17 | 135 | 0.0 | 0.0 | 0.00 | 0.00 | 0.00 | 1011.6 | |
| 20260904211921 | -17 | 135 | 0.0 | 0.0 | 0.00 | 0.00 | 0.00 | 1011.6 | |
| 20260904211121 | -17 | 90 | 0.0 | 0.0 | 0.00 | 0.00 | 0.00 | 1011.5 | |
| 20260904210318 | -17 | 90 | 0.0 | 0.0 | 0.00 | 0.00 | 0.00 | 1011.5 | |
| 20260904205517 | -17 | 180 | 0.0 | 0.0 | 0.00 | 0.00 | 0.00 | 1011.5 | |
| 20260904204716 | -17 | 135 | 0.0 | 0.0 | 0.00 | 0.00 | 0.00 | 1011.5 | |
| 20260904203915 | -17 | 135 | 0.0 | 0.0 | 0.00 | 0.00 | 0.00 | 1011.6 | |
| 20260904203108 | -17 | 180 | 0.0 | 0.0 | 0.00 | 0.00 | 0.00 | 1011.6 | |
| 20260904202300 | -17 | 180 | 0.0 | 0.0 | 0.00 | 0.00 | 0.00 | 1011.6 | |
| 20260904201458 | -17 | 180 | 0.0 | 0.0 | 0.00 | 0.00 | 0.00 | 1011.6 | |
| 20260904200658 | -17 | 135 | 0.0 | 0.0 | 0.00 | 0.00 | 0.00 | 1011.5 | |
| 20260904195857 | -17 | 45 | 0.0 | 0.0 | 0.00 | 0.00 | 0.00 | 1011.5 | |
| 20260904195052 | -17 | 180 | 0.0 | 0.0 | 0.00 | 0.00 | 0.00 | 1011.6 | |
| 20260904194249 | -17 | 180 | 0.0 | 0.0 | 0.00 | 0.00 | 0.00 | 1011.5 | |
| 20260904193438 | -17 | 180 | 0.0 | 0.0 | 0.00 | 0.00 | 0.00 | 1011.4 | |
| 20260904192634 | -17 | 180 | 0.0 | 0.0 | 0.00 | 0.00 | 0.00 | 1011.5 | |
| 20260904191829 | -17 | 180 | 0.0 | 0.0 | 0.00 | 0.00 | 0.00 | 1011.4 | |
| 20260904191022 | -17 | 180 | 0.0 | 0.0 | 0.00 | 0.00 | 0.00 | 1011.4 | |
| 20260904190219 | -17 | 180 | 0.0 | 0.0 | 0.00 | 0.00 | 0.00 | 1011.4 | |
| 20260904185417 | -17 | 135 | 0.0 | 0.0 | 0.00 | 0.00 | 0.00 | 1011.7 | |
| 20260904184614 | -17 | 135 | 0.0 | 0.0 | 0.00 | 0.00 | 0.00 | 1011.7 | |
| 20260904183813 | -17 | 135 | 0.0 | 0.0 | 0.00 | 0.00 | 0.00 | 1011.6 |